Wind_Speed
11 11 11 12 12 12 12 12 12 13 13 14 15 15 14 14 13 13 12 12 11 11 12 12 12 12 13 13 14 15 16 16 16 16 16 16 15 15 14 13 13 13 11 10 9 10 10 10 10 10 10 11 11 12 12 12 12 12 12 11 11 11 11 11 11 10 8 6 4 4 5 5 5 4 5 6 7 8 8 7 6 7 6 6 7
11 11 11 12 12 12 12 12 12 13 13 14 14 14 14 14 14 13 12 12 12 11 11 11 11 11 12 12 13 14 15 15 16 16 17 17 16 16 16 15 15 14 13 12 11 12 12 12 11 11 11 11 11 11 12 12 11 11 11 11 11 11 12 12 13 13 12 10 8 7 7 7 8 8 8 8 8 8 7 6 6 7 8 8 9
11 11 11 12 11 12 12 12 12 12 13 14 14 14 14 14 14 14 13 12 12 12 11 10 11 11 10 11 12 12 14 14 15 15 16 17 17 17 17 16 15 15 13 13 13 13 13 13 12 11 11 11 11 11 11 11 11 11 11 11 11 12 12 12 13 14 14 13 12 12 12 12 12 12 12 13 13 13 11 9 9 9 10 11 12
11 11 11 11 11 11 11 12 12 11 12 13 14 15 15 14 14 15 15 13 13 13 11 11 11 10 9 10 11 11 13 13 13 14 15 16 16 17 17 16 15 15 14 13 14 14 14 14 13 12 12 11 11 11 11 11 11 12 12 12 12 12 12 12 13 13 14 14 14 13 13 13 13 13 14 16 17 17 17 15 14 13 14 14 14
11 11 11 11 11 11 11 11 11 11 12 13 14 14 15 15 15 15 15 14 14 14 12 12 12 11 9 10 10 11 13 13 12 13 14 15 15 15 16 15 15 16 15 15 15 15 14 14 14 13 12 11 11 11 11 12 12 12 12 12 13 13 13 12 12 12 13 13 13 13 13 13 13 13 14 15 17 18 18 17 16 15 15 14 14
11 11 11 12 12 12 11 11 12 12 12 13 13 13 14 15 15 15 15 14 15 15 14 12 12 12 11 10 10 11 13 13 13 13 13 14 15 14 15 14 14 15 15 15 15 15 14 14 14 14 13 12 11 11 11 12 12 12 13 13 13 13 12 12 12 12 12 12 12 12 12 12 12 13 13 14 15 16 16 16 15 15 14 14 14
11 11 12 12 13 13 12 13 14 14 13 12 12 13 14 16 16 17 16 15 15 15 15 13 11 12 12 10 11 12 13 14 14 13 13 13 14 14 14 14 13 14 14 15 15 15 14 14 14 14 14 14 12 11 11 11 12 12 12 12 12 12 12 12 11 11 11 11 12 12 11 11 12 12 12 12 13 13 14 14 14 13 13 13 13
11 11 12 13 13 14 15 15 15 14 13 13 12 13 14 15 16 17 17 16 16 16 14 12 11 12 13 11 12 13 14 14 14 14 13 13 14 14 13 13 13 13 14 14 14 14 14 13 14 14 14 14 14 12 11 11 11 11 11 11 11 11 10 10 10 10 10 10 11 11 11 11 11 11 11 11 11 11 12 12 12 12 12 12 12
11 11 13 14 14 15 15 16 15 14 14 13 13 13 13 14 15 15 15 16 16 15 13 12 11 12 13 13 13 13 14 14 14 14 13 13 14 13 13 13 12 12 13 14 14 14 13 13 14 14 14 14 14 13 12 11 11 10 10 10 10 10 9 9 9 9 9 9 9 10 10 10 10 10 10 10 10 10 10 10 11 11 11 11 11
10 12 13 14 14 15 15 15 15 15 14 14 13 13 13 13 13 13 13 13 14 14 13 11 10 11 12 13 13 13 13 13 13 14 12 12 13 13 12 12 11 11 12 13 13 14 13 13 13 13 13 13 13 14 14 13 12 11 10 10 9 9 9 8 8 8 8 8 8 8 8 9 9 9 9 9 9 9 9 9 10 10 10 10 10
10 11 12 13 14 14 14 14 15 14 14 14 13 12 12 11 11 11 12 11 11 12 12 11 9 9 11 12 12 12 11 12 12 12 11 11 11 12 12 11 11 11 12 13 13 13 13 13 13 13 13 13 13 14 14 14 13 12 11 10 10 9 9 9 9 8 8 7 7 8 8 9 9 10 9 9 9 8 8 8 9 9 9 9 10
9 11 12 12 13 13 13 14 14 13 13 13 13 12 11 10 10 11 11 11 10 10 11 11 10 9 10 11 11 10 10 11 11 10 10 10 10 12 12 11 10 11 12 12 12 12 13 12 12 12 12 13 13 13 13 13 13 13 12 12 11 11 11 10 10 9 8 8 8 9 9 9 10 10 10 10 9 8 8 8 8 8 9 9 10
8 9 11 12 12 12 12 12 12 12 13 13 12 12 11 11 11 11 12 11 10 10 11 12 12 10 9 10 11 10 9 10 9 9 9 9 11 12 12 10 11 12 12 12 11 11 11 11 11 11 11 12 12 13 13 13 13 13 13 12 12 12 11 10 9 9 9 9 9 8 8 8 9 9 9 9 9 8 8 7 7 8 9 10 11
7 8 10 11 11 11 11 11 11 12 12 12 13 12 12 12 12 12 13 12 11 11 12 12 12 11 11 11 11 10 10 10 9 9 10 11 12 13 12 11 11 12 12 12 11 11 11 11 10 10 10 11 11 11 11 11 11 12 11 11 11 10 9 9 8 8 8 7 7 7 7 7 7 7 8 8 8 8 8 8 9 9 10 11 13
7 7 8 9 10 10 10 10 11 11 11 11 13 13 12 12 13 13 13 12 11 11 12 12 11 13 14 13 12 12 11 11 11 11 11 12 13 13 12 12 12 13 13 12 12 12 11 11 10 9 10 10 10 9 9 9 9 9 9 9 8 8 7 7 7 7 7 7 7 7 7 7 8 8 8 9 9 9 9 10 11 11 12 13 14
6 6 7 8 9 9 9 10 10 10 10 11 12 12 12 12 14 14 14 12 11 10 11 12 11 13 16 15 13 13 13 13 12 12 12 12 13 13 13 12 13 13 13 13 13 12 12 11 10 10 10 10 10 9 9 8 7 7 7 7 7 7 7 7 7 7 8 8 8 8 9 9 9 9 10 10 10 10 11 11 12 12 13 14 15
5 5 6 7 8 9 9 9 9 9 9 10 11 12 12 13 14 14 14 13 11 10 11 11 11 13 16 16 15 14 14 13 12 12 12 12 12 12 13 13 13 13 12 13 13 12 12 12 11 10 10 10 10 10 10 9 8 8 7 7 7 7 7 7 7 8 8 9 9 10 10 11 11 11 11 12 12 12 13 13 14 15 15 16 17
5 4 5 6 7 8 8 8 8 7 8 8 10 12 12 13 13 14 14 13 12 11 11 10 11 13 14 14 14 13 13 13 12 12 11 11 11 13 13 14 13 13 12 12 12 12 12 11 11 10 10 10 10 10 10 10 10 10 10 9 9 9 9 8 8 8 9 9 9 10 11 11 12 12 13 13 14 14 15 15 16 16 17 18 18
4 4 4 5 6 7 8 8 7 7 7 8 9 11 12 12 13 13 14 14 13 12 11 10 10 11 12 13 13 13 13 13 12 12 11 10 12 13 14 14 13 13 12 12 12 12 11 11 11 10 10 10 10 10 10 11 11 11 10 10 10 10 10 9 9 9 9 10 10 11 11 12 13 13 14 15 15 16 16 16 16 17 17 17 18
4 4 4 5 6 7 8 8 7 6 6 7 8 10 11 11 12 13 14 14 14 13 11 10 9 9 10 11 12 13 13 13 12 12 11 11 12 12 13 13 13 13 13 12 12 11 10 10 11 10 10 10 11 10 10 10 11 11 11 10 10 10 10 10 10 10 11 11 12 12 13 14 14 15 16 16 16 16 16 16 17 17 17 18 18
5 5 5 6 6 6 7 7 7 6 6 6 8 9 9 10 11 12 14 14 13 12 11 10 9 8 9 9 10 11 12 12 12 13 13 12 12 12 12 12 13 13 12 11 11 11 11 11 11 10 9 10 11 10 9 10 11 11 11 11 11 11 12 12 12 13 13 13 14 15 15 16 16 16 16 17 17 17 17 17 17 18 18 19 20
6 6 6 6 6 6 6 7 7 6 6 6 7 8 8 8 9 11 12 12 12 11 11 10 9 8 8 9 9 10 11 12 12 12 12 12 12 11 11 11 12 12 12 10 10 10 11 11 10 10 9 9 10 9 9 10 10 11 11 11 12 12 13 14 14 15 15 15 16 16 16 17 17 17 17 17 18 18 18 18 18 19 20 21 22
7 7 7 7 7 7 6 6 6 6 5 5 6 8 8 8 8 8 9 10 11 10 10 10 9 8 9 9 9 10 11 12 12 12 12 11 11 11 11 11 11 11 10 10 9 9 9 9 9 8 8 8 8 8 9 10 10 11 12 12 13 14 14 15 15 16 16 17 17 17 17 17 18 18 18 18 19 19 19 19 20 21 22 23 23
8 8 7 8 8 8 8 7 7 6 5 5 6 6 7 7 7 7 7 8 9 9 9 9 9 9 9 10 10 10 11 11 11 11 11 11 11 12 12 12 11 11 10 9 9 9 8 8 7 7 7 7 8 9 10 11 12 13 14 14 15 15 15 16 16 17 17 18 18 18 19 19 19 19 19 20 20 20 20 21 21 22 23 23 24
9 8 8 8 9 9 9 9 9 8 7 6 6 6 7 7 7 6 6 6 6 7 7 8 8 9 9 10 10 10 11 11 11 11 10 10 10 10 11 11 11 11 10 9 9 9 9 9 9 8 8 9 10 11 12 12 13 14 14 14 15 16 16 17 17 18 19 19 20 20 20 20 20 21 21 21 21 21 21 22 22 23 23 23 24
9 8 8 7 7 8 8 8 9 9 9 9 8 8 8 7 7 7 6 5 5 5 6 6 7 7 8 9 9 9 10 11 11 11 10 10 10 10 10 10 10 10 10 10 10 10 9 10 10 11 11 11 12 14 14 14 15 15 15 15 16 16 17 18 19 20 21 21 21 22 22 22 22 22 22 22 22 22 22 23 23 24 24 24 25
9 8 7 5 5 5 5 6 6 7 8 9 9 9 9 9 8 8 7 6 5 5 5 5 6 6 6 6 6 6 7 8 9 9 9 9 10 10 10 10 9 8 8 8 9 10 10 10 11 11 12 13 14 15 15 15 16 16 16 16 17 18 19 20 21 22 22 23 23 23 23 23 22 23 23 23 23 23 24 25 25 26 27 27 28
9 7 6 4 3 2 2 3 4 5 7 8 9 9 10 10 10 10 8 7 6 5 5 5 5 5 4 4 3 3 4 5 6 6 6 6 7 8 8 9 9 9 8 8 7 8 9 10 10 11 12 13 13 14 15 15 16 16 16 17 18 19 20 21 21 22 22 22 23 23 23 23 23 23 23 24 24 25 26 27 28 29 30 30 31
9 7 6 4 3 1 1 2 3 5 6 8 9 9 9 10 10 11 10 9 7 6 5 5 5 4 4 3 3 3 3 3 4 4 4 5 6 7 8 8 9 9 10 9 9 9 9 9 10 10 11 12 12 13 13 14 14 15 15 16 17 18 19 20 20 21 21 21 22 22 23 23 23 23 24 24 25 26 27 28 29 30 31 32 33
10 8 6 5 4 3 3 4 5 6 7 8 9 10 10 10 10 11 11 10 9 8 6 5 5 5 4 4 4 4 4 4 4 4 5 6 7 7 8 9 9 10 11 11 11 11 11 11 11 10 10 11 11 11 11 12 12 13 14 14 15 16 17 18 18 19 20 20 21 21 22 22 23 23 24 25 26 27 28 30 31 32 33 34 35
9 8 6 5 5 5 5 6 7 8 9 9 11 11 12 12 11 11 11 11 10 10 8 7 6 6 6 5 5 5 5 6 6 6 7 7 8 9 9 10 10 11 11 12 12 12 12 11 11 11 11 10 10 10 10 10 10 11 12 13 14 15 16 16 17 18 19 20 20 21 22 22 23 24 24 26 27 28 30 31 33 34 35 36 36
9 8 7 7 7 8 8 9 9 10 11 11 12 13 13 13 13 13 12 11 11 11 10 9 8 7 7 7 7 6 7 7 7 8 8 9 9 10 11 12 12 12 12 12 12 12 12 11 10 10 10 10 9 9 9 9 10 11 12 13 14 14 15 16 17 18 20 21 22 22 23 23 24 25 26 27 28 30 31 33 35 36 37 37 37
10 9 9 9 10 10 10 11 11 12 12 12 13 14 14 15 14 14 14 13 12 12 12 11 10 9 9 8 8 8 8 9 9 9 10 10 11 11 12 13 13 13 12 11 11 11 11 11 10 9 9 9 10 9 9 9 11 12 13 14 15 16 16 17 18 20 21 23 23 24 25 25 26 27 28 29 30 31 33 34 36 37 38 38 39
11 11 11 11 12 12 12 12 12 13 13 13 14 14 15 15 15 15 15 15 14 13 13 13 12 11 10 10 9 9 9 10 11 11 12 12 13 13 13 13 13 13 13 12 11 10 10 10 10 10 10 10 11 11 12 12 12 14 15 16 17 18 19 20 21 22 23 25 26 27 27 28 28 29 29 31 32 33 34 36 37 38 39 39 40
13 13 12 12 12 12 12 12 12 12 13 14 14 14 15 15 15 15 15 15 15 15 14 14 13 12 11 11 10 10 10 11 11 13 13 14 14 14 14 14 14 14 13 12 11 10 9 9 9 10 11 11 12 12 14 15 16 17 17 18 19 20 21 23 24 25 26 27 28 29 30 31 31 31 31 32 33 34 36 38 39 39 40 40 41
13 13 12 11 11 10 11 11 11 12 13 14 14 14 14 14 14 15 14 14 15 15 15 15 14 12 12 12 11 11 11 12 12 13 14 14 15 15 15 15 15 15 14 13 13 12 11 10 10 10 11 13 14 15 15 17 19 20 21 22 23 23 24 25 26 28 29 30 30 31 32 33 33 34 34 35 36 37 39 40 42 42 42 42 43
12 12 11 10 10 10 10 11 11 12 13 14 15 15 14 13 13 13 13 14 14 15 16 16 15 14 12 12 12 11 11 12 13 14 14 14 15 16 16 16 16 16 15 15 15 14 15 15 15 14 14 15 17 19 19 19 20 22 23 23 25 26 27 27 28 29 30 31 32 33 35 36 36 37 38 39 40 41 42 43 45 45 44 44 44
12 11 11 10 10 11 11 11 11 12 12 13 15 15 15 13 12 11 12 13 14 14 15 16 16 15 12 12 12 11 10 11 13 14 14 14 14 15 16 17 17 17 18 18 18 18 18 19 19 20 20 20 20 22 24 24 24 25 26 25 26 28 29 29 31 32 32 33 34 35 37 38 39 40 41 42 43 44 45 46 47 47 45 44 45
11 11 11 11 11 11 12 11 11 12 12 13 13 14 15 14 12 11 11 12 13 14 15 15 15 14 13 12 12 11 11 11 12 14 14 14 14 14 14 16 18 18 19 20 21 21 21 22 23 24 25 25 26 26 28 29 28 29 30 29 29 31 32 33 34 35 35 36 36 37 38 40 41 42 44 45 45 47 48 48 48 47 46 46 45
10 10 10 10 11 11 12 12 12 12 12 12 13 13 14 14 13 11 11 11 12 13 14 15 14 12 11 11 11 11 11 12 13 14 14 14 14 14 15 17 18 18 19 21 22 23 24 24 24 26 28 29 30 30 32 33 33 33 35 34 33 34 36 36 36 38 38 38 39 39 40 42 43 44 45 46 47 48 49 49 48 47 48 48 45
9 10 10 10 11 11 12 12 12 12 12 12 12 12 12 12 12 11 10 11 11 11 11 11 10 9 9 9 9 10 11 12 13 14 15 16 16 16 17 18 19 19 19 20 21 23 24 25 25 26 27 28 30 32 33 34 35 36 38 38 37 37 37 37 37 39 40 41 41 41 41 43 45 45 46 47 47 48 48 49 48 47 49 48 44
10 10 10 11 11 12 12 12 12 12 12 11 11 11 10 10 10 10 9 9 8 7 7 7 7 7 7 7 7 8 10 11 13 14 16 16 16 16 18 19 19 19 19 19 20 21 23 23 24 25 26 26 28 31 32 34 35 36 37 38 38 38 39 39 38 40 42 44 43 43 43 45 45 45 46 47 47 48 47 48 48 47 48 48 46
10 10 10 11 11 12 12 12 12 11 11 11 10 9 9 8 8 8 7 7 6 6 6 6 6 6 7 7 7 8 9 10 11 12 13 14 15 16 18 20 21 21 21 21 21 22 24 24 25 26 27 26 27 30 33 35 37 38 38 39 39 40 41 41 41 42 44 46 45 43 44 46 45 44 46 46 47 47 46 46 47 47 48 48 48
12 11 10 11 12 12 12 12 12 11 11 10 9 8 7 7 7 7 6 7 6 6 5 5 5 5 5 6 6 7 8 9 10 11 12 14 16 18 20 22 24 24 25 25 25 26 27 28 29 29 29 29 30 32 34 37 40 41 41 42 42 43 44 44 43 43 44 47 47 44 44 45 46 45 45 46 47 47 46 46 47 47 49 49 48
13 12 11 11 12 12 12 12 12 10 10 9 8 8 8 7 8 7 7 6 6 5 5 4 4 4 5 5 6 7 9 10 12 13 15 17 19 20 22 23 25 26 28 28 29 30 30 31 32 32 31 33 33 33 35 38 40 41 42 43 43 43 43 43 43 43 44 46 47 46 44 44 46 46 45 46 48 47 47 47 47 48 49 49 48
14 13 13 13 12 12 12 12 11 10 9 9 9 9 9 9 9 8 6 5 5 5 5 5 6 6 7 8 9 10 12 14 15 17 19 20 22 24 25 26 27 28 30 30 31 33 34 34 35 34 34 36 36 35 37 41 42 42 43 45 45 44 43 42 42 43 44 45 47 47 45 44 47 47 45 46 48 47 47 48 48 48 49 49 48
16 16 15 13 12 12 12 12 11 10 10 11 10 10 10 9 9 8 7 6 6 7 7 7 9 10 11 12 13 14 16 18 20 22 24 25 27 28 28 29 30 31 32 32 32 34 36 37 37 37 36 37 38 38 40 43 44 44 45 46 47 47 46 45 44 44 45 45 46 47 45 44 47 47 46 47 48 47 47 48 48 48 49 49 49
17 17 15 13 13 13 13 13 12 12 12 12 11 11 11 10 9 8 8 8 8 8 9 10 11 12 14 15 16 18 20 21 23 26 27 29 30 30 30 31 32 33 33 32 34 36 38 39 40 40 39 40 42 42 43 45 46 46 47 49 49 49 49 49 47 46 46 46 47 48 47 45 46 48 48 49 49 48 48 49 49 49 49 49 50
17 16 15 15 15 14 13 13 13 13 13 12 12 11 11 10 9 9 9 9 9 10 11 13 14 15 17 18 19 21 21 22 25 27 29 31 31 31 32 33 34 35 34 34 37 40 41 42 43 43 42 43 45 45 46 47 47 48 50 51 50 50 52 51 49 47 46 47 48 49 49 47 48 50 51 51 50 49 49 50 51 50 50 50 50
18 18 18 17 15 14 14 14 14 14 13 12 11 11 11 10 10 10 11 11 11 12 14 16 17 19 20 21 23 24 24 25 27 29 30 32 32 32 34 35 36 36 35 37 41 43 44 45 45 45 45 45 47 48 49 50 50 51 53 52 52 54 55 53 51 50 49 48 48 50 53 51 50 52 54 53 52 50 49 51 52 51 51 51 51
20 20 19 17 16 15 15 16 15 14 13 12 11 11 11 12 12 13 14 15 15 17 19 20 21 22 24 25 27 27 27 28 29 30 32 33 34 35 36 39 39 38 38 42 46 47 47 48 48 48 48 48 50 51 51 52 52 53 54 54 54 57 58 56 55 55 54 51 48 52 56 54 53 55 56 55 53 50 50 51 53 53 52 52 51
Wind_Direction
71 63 59 60 56 51 49 50 53 56 60 61 60 60 60 61 62 62 65 68 70 71 73 76 75 73 76 76 74 75 75 74 74 75 75 75 74 75 76 76 74 73 70 68 67 67 67 65 63 61 59 61 62 62 61 62 64 65 68 69 66 61 54 49 47 48 52 56 55 51 45 42 39 31 16 358 343 333 329 332 345 357 360 359 4
71 64 58 58 57 56 56 57 58 57 56 57 58 60 61 62 64 65 65 69 73 76 75 77 78 75 74 74 73 74 77 76 74 74 73 72 72 72 74 75 75 74 73 71 71 70 68 66 64 64 63 62 64 65 65 65 64 64 65 67 66 63 59 55 53 56 61 64 67 69 70 69 67 61 53 39 24 10 359 2 17 22 19 19 24
72 66 60 57 56 57 60 62 62 57 52 52 55 60 62 61 64 68 68 68 74 80 81 81 81 79 77 75 73 72 73 74 74 74 74 73 72 72 72 71 73 74 73 72 72 71 70 69 67 68 69 69 71 73 72 71 69 68 68 68 68 66 63 60 59 61 65 68 71 74 77 78 76 71 64 57 51 49 50 52 53 48 42 42 43
74 69 63 60 56 55 59 64 65 60 53 51 53 56 59 59 60 66 70 70 74 79 82 84 83 81 79 77 74 71 70 69 70 72 73 74 73 73 73 72 72 72 72 72 72 71 70 69 68 68 71 73 76 80 79 77 75 75 74 73 72 69 67 64 63 65 67 70 72 75 77 77 76 72 66 61 60 62 66 69 67 62 58 55 52
76 72 66 62 59 57 61 68 71 66 58 55 53 53 57 59 58 62 66 68 71 75 77 77 81 84 80 79 80 78 75 71 68 70 71 72 72 72 73 72 71 72 72 72 72 71 70 69 69 69 70 72 77 82 82 79 78 79 79 78 76 73 69 67 66 66 68 70 71 72 73 73 71 69 66 63 63 65 68 70 69 66 63 59 56
78 74 69 65 62 64 70 77 78 71 63 57 53 53 57 60 61 62 64 65 68 73 74 70 75 83 83 81 83 81 79 76 71 70 71 72 72 70 70 69 69 71 72 73 72 71 69 67 66 66 67 69 73 79 82 81 80 80 81 80 79 76 73 69 67 67 68 68 69 69 69 68 66 65 64 63 63 64 66 67 67 65 62 58 55
83 77 72 67 68 76 84 87 82 75 67 60 59 59 61 64 65 65 65 65 65 69 73 71 70 79 85 85 82 80 78 77 76 74 72 73 73 70 68 67 65 66 68 70 70 69 68 66 64 64 63 64 68 74 81 84 83 82 81 80 80 79 76 72 70 69 68 67 66 65 64 63 61 61 60 61 61 62 63 64 64 63 60 56 53
86 79 73 72 77 84 87 85 80 73 68 66 67 67 67 68 66 64 64 65 67 68 70 72 69 72 81 82 77 77 77 77 78 77 74 73 74 72 69 68 65 63 64 65 65 65 65 65 64 64 63 63 66 70 78 84 86 84 82 81 81 79 77 75 73 70 66 63 62 60 59 58 56 55 54 53 54 54 55 57 59 58 55 54 51
89 80 76 78 83 87 85 82 77 71 68 69 70 71 69 67 65 64 63 64 69 74 75 73 70 70 75 77 75 76 77 78 78 78 76 74 74 73 71 70 68 66 66 66 66 65 66 65 64 65 65 65 66 68 73 80 85 86 85 84 82 80 78 77 74 69 64 60 58 56 54 53 50 48 46 45 44 44 44 45 49 48 46 46 44
90 80 77 81 87 89 85 80 74 69 68 68 68 68 66 63 61 62 64 65 70 77 80 77 75 75 78 80 79 78 78 79 79 79 78 77 77 77 74 71 69 67 67 67 68 69 70 69 66 65 66 66 66 67 69 73 79 82 83 84 84 82 79 77 74 68 63 59 54 49 43 39 35 33 33 33 34 33 32 32 35 36 35 34 34
89 80 79 83 87 88 85 79 74 71 69 67 64 62 62 61 59 60 62 63 66 71 76 79 82 82 85 87 87 86 85 85 85 86 84 82 81 80 76 71 68 65 64 64 66 69 73 74 71 68 66 66 67 66 67 69 72 75 77 80 80 79 77 75 73 70 64 57 49 40 34 29 26 26 25 24 24 22 20 19 19 20 19 18 17
89 80 79 83 87 88 85 80 75 73 70 65 60 57 59 60 60 61 60 56 54 57 65 75 83 83 85 92 96 96 95 93 92 92 90 85 81 80 77 71 67 66 64 63 64 67 72 76 77 74 68 66 67 67 67 68 68 68 69 70 70 69 69 69 69 68 64 57 51 45 40 36 32 30 29 27 24 21 16 10 6 3 0 358 357
92 81 78 82 89 90 86 81 77 75 71 64 57 57 61 61 59 58 56 51 48 52 60 69 77 82 83 88 95 98 96 94 94 94 92 87 82 81 80 75 72 72 71 70 69 70 73 76 80 80 76 70 68 69 69 69 68 66 64 64 64 65 64 64 63 60 57 53 50 48 44 41 37 33 31 28 25 21 15 6 357 350 345 342 340
96 83 78 81 88 92 90 84 79 75 69 60 55 59 64 63 61 59 55 50 50 58 64 65 73 84 85 80 83 88 90 91 93 94 93 91 87 85 86 82 79 78 78 78 78 78 77 78 80 83 83 79 74 71 70 71 72 71 69 66 65 64 61 57 54 50 47 45 44 43 40 37 33 28 24 19 15 11 5 357 350 343 338 335 332
100 86 79 79 86 93 93 84 77 74 66 56 54 59 64 64 62 59 56 51 51 59 64 65 74 86 85 79 78 82 85 86 87 87 90 89 87 87 87 83 79 80 82 84 83 81 81 82 84 86 89 88 83 77 72 71 73 75 76 74 69 62 55 48 42 36 32 30 27 25 23 20 17 14 10 5 2 358 354 349 344 340 336 333 331
103 89 79 76 82 88 90 84 78 75 65 55 54 58 61 60 58 56 53 50 51 58 64 67 75 84 84 82 82 83 83 82 81 83 85 86 86 87 86 83 78 75 78 81 80 80 80 82 84 86 89 90 89 85 80 74 72 74 77 77 73 64 54 44 35 28 22 18 15 13 11 9 6 3 0 357 354 350 346 343 339 336 333 332 331
110 95 81 76 80 84 88 87 83 77 66 55 54 56 57 56 55 53 52 51 51 58 65 70 76 81 83 82 81 82 82 81 81 82 83 83 86 88 85 82 80 76 74 77 80 80 79 78 78 79 80 82 83 83 81 77 70 66 63 61 60 57 52 45 36 29 24 19 14 11 8 5 2 359 356 353 350 346 344 341 339 337 336 335 334
117 102 87 82 83 84 87 88 86 80 67 57 55 56 56 55 53 51 52 53 53 58 65 71 78 82 85 84 79 75 75 78 79 80 81 85 87 87 84 82 81 80 76 76 78 78 77 77 75 74 75 75 75 75 74 71 67 61 54 50 46 43 40 36 32 27 22 17 11 7 3 360 358 355 352 350 347 346 344 342 340 339 337 336 335
121 112 99 92 89 87 87 86 85 79 66 55 53 56 56 55 52 49 50 53 54 58 63 67 75 82 85 82 76 69 67 70 73 76 80 83 81 78 79 79 79 79 77 75 74 73 73 75 75 72 72 71 68 65 64 62 59 53 46 43 40 34 30 25 21 18 13 8 3 359 357 355 354 353 351 350 348 347 345 344 343 342 341 340 338
127 121 110 101 95 90 88 87 85 79 65 53 48 53 55 55 53 49 49 50 52 56 61 63 68 76 79 75 70 65 64 68 72 75 77 76 73 71 70 72 72 72 70 70 72 73 72 73 73 68 66 66 61 55 55 56 52 43 34 30 28 24 22 17 13 9 5 1 358 355 354 354 354 354 353 352 351 350 350 350 349 348 347 344 341
133 126 113 105 99 92 89 87 85 79 67 55 47 50 53 55 54 50 48 48 50 54 58 59 60 68 74 72 67 64 67 72 74 76 78 77 74 71 67 67 67 66 64 62 65 70 71 70 70 67 63 62 58 49 47 48 45 39 31 24 21 17 15 12 8 5 1 358 356 355 355 355 355 354 354 355 355 356 356 355 353 351 349 345 342
132 123 113 105 98 95 92 88 85 78 68 54 46 46 50 55 56 53 50 49 49 52 57 60 58 62 69 68 66 67 70 74 74 73 76 78 78 75 69 65 63 63 62 58 56 58 59 58 59 60 58 57 55 48 41 38 36 34 30 22 17 13 10 8 6 4 2 1 0 360 358 357 357 356 357 358 359 359 358 357 354 352 350 346 342
131 121 112 103 94 90 89 87 85 81 71 56 44 40 43 50 57 58 55 51 49 50 55 61 60 60 65 67 67 69 71 71 69 65 61 61 62 60 57 55 54 54 53 50 46 47 50 51 48 47 45 45 45 42 34 28 24 23 20 15 10 7 7 7 7 8 8 9 8 6 4 3 2 1 1 1 1 0 359 357 355 352 349 345 342
131 121 107 96 89 85 80 77 76 75 69 56 42 36 36 40 47 54 56 53 50 49 52 57 59 59 61 64 67 69 69 67 64 60 54 48 44 41 40 41 39 38 38 36 32 29 29 30 30 29 28 26 25 27 24 17 12 12 10 7 3 2 4 6 7 8 9 9 8 7 5 4 3 2 2 2 1 359 357 355 352 350 347 343 341
135 121 105 95 86 81 74 67 63 62 60 52 40 30 28 30 34 40 45 46 45 46 48 51 53 53 55 59 65 68 65 60 56 55 55 53 48 41 35 32 28 22 17 16 18 16 10 5 3 5 8 10 12 16 17 12 7 7 6 2 359 359 2 3 4 5 5 5 5 3 2 1 360 359 359 358 357 355 353 350 348 346 343 341 339
139 123 110 102 89 77 68 60 53 49 47 45 37 29 22 21 22 25 27 29 28 29 37 45 47 49 52 57 63 65 59 53 48 46 48 53 54 49 38 29 22 13 2 359 359 359 358 355 352 354 357 2 7 10 13 10 6 6 5 1 359 358 360 1 2 3 3 3 2 1 359 358 357 357 356 355 353 351 349 347 345 343 341 340 340
142 132 122 115 98 79 63 50 40 31 27 27 28 25 20 18 15 13 12 12 11 8 13 27 36 41 45 51 58 57 47 41 42 45 45 47 48 45 38 30 24 20 12 1 351 347 349 348 348 351 354 359 3 5 6 5 5 6 4 2 1 0 1 3 4 5 4 4 3 1 360 358 357 356 356 354 353 351 349 347 345 343 342 342 341
149 148 143 140 129 93 55 28 10 3 360 1 6 10 11 11 11 9 6 2 359 354 349 357 12 23 27 28 32 32 22 19 27 37 41 40 35 30 27 26 24 24 25 22 11 2 358 353 352 355 356 357 359 360 1 4 5 5 4 3 3 3 4 6 7 8 8 7 6 4 3 2 1 1 0 359 358 356 354 352 349 347 345 344 341
162 163 159 161 173 198 268 308 319 322 326 330 337 345 351 355 359 3 4 1 353 345 337 331 334 348 1 356 345 342 341 343 356 7 12 15 14 7 5 7 10 12 16 19 21 18 13 8 3 1 360 359 359 1 3 4 4 4 3 3 4 4 5 6 7 8 7 7 6 6 5 5 4 4 3 3 2 0 359 356 353 350 348 345 341
171 174 178 185 198 223 252 272 286 293 299 305 311 318 326 332 339 347 354 358 353 342 330 318 310 310 319 326 325 323 320 318 323 335 344 348 351 352 353 358 2 4 6 10 15 16 15 12 8 3 2 3 4 5 4 3 2 1 360 0 0 360 0 1 2 2 1 2 2 3 2 2 1 0 358 357 357 356 355 353 351 349 346 344 340
177 186 199 213 226 238 252 264 272 279 284 288 294 300 305 310 316 325 334 343 348 343 330 316 305 294 292 296 302 306 309 311 315 322 330 337 343 348 354 0 5 8 8 8 9 11 12 9 6 1 359 3 6 5 2 0 359 356 354 353 353 352 352 353 354 354 354 355 355 355 354 354 353 352 350 349 348 348 348 347 346 345 343 342 340
192 204 219 235 247 253 259 265 269 274 278 281 283 287 291 294 299 306 312 321 332 337 332 318 304 296 291 287 289 294 299 304 311 317 325 335 343 349 355 1 7 13 15 12 8 6 5 5 1 357 354 357 0 0 357 353 350 346 344 343 343 344 347 349 350 351 350 350 349 347 346 345 344 344 343 342 342 342 342 342 342 342 341 341 341
208 220 232 241 251 259 265 268 272 275 277 279 279 279 282 284 287 292 297 304 313 324 330 323 309 300 297 294 291 292 297 302 308 316 325 335 341 348 353 359 4 9 13 14 9 2 358 355 354 353 351 349 349 349 348 343 339 336 335 336 338 340 343 346 348 348 348 347 345 344 342 341 339 339 339 338 338 338 339 340 341 341 341 341 342
215 224 234 242 250 258 264 268 272 275 277 278 278 278 278 279 281 283 287 293 300 310 321 324 317 305 298 300 300 298 300 305 310 318 326 332 337 343 350 356 1 4 7 7 5 360 353 348 345 344 344 342 339 338 336 335 333 332 333 334 337 338 340 342 343 343 343 342 341 341 339 338 337 337 337 337 338 338 339 339 340 341 341 341 342
216 224 232 241 248 254 260 266 270 272 274 276 277 278 279 279 280 281 282 287 294 302 310 318 321 310 297 297 302 306 309 312 316 321 326 330 334 338 344 350 353 355 358 358 356 353 347 341 338 335 335 334 334 333 332 332 331 332 334 334 335 336 337 337 337 336 336 336 336 335 335 335 334 335 335 336 338 339 340 340 340 339 339 339 340
219 225 229 235 241 247 253 260 266 270 273 275 276 277 278 280 281 282 284 287 291 296 300 308 318 313 298 293 298 307 314 317 320 323 326 329 331 335 338 342 343 343 345 345 344 342 338 333 329 326 326 325 325 325 325 325 326 327 329 330 330 330 330 330 330 330 330 330 331 331 331 331 332 333 334 335 337 338 339 339 339 338 336 335 336
221 226 229 233 237 242 247 252 258 265 269 272 275 276 277 279 280 281 283 285 286 288 290 299 312 315 301 289 292 304 314 317 319 322 325 327 328 331 332 333 333 332 332 331 331 330 328 325 323 321 320 319 318 318 318 319 320 320 321 322 323 323 323 324 324 324 326 327 328 330 330 329 330 331 332 334 335 336 336 336 336 335 333 332 333
225 230 235 240 244 248 253 257 259 262 266 268 272 275 277 277 276 275 275 278 280 281 283 292 306 312 303 289 287 295 306 311 314 317 321 323 325 326 325 323 322 321 322 321 321 321 321 320 319 319 320 321 320 318 317 318 319 318 317 318 319 318 318 320 321 321 323 325 326 328 328 328 330 331 332 332 332 333 333 333 334 334 332 330 330
230 235 238 242 247 253 260 266 269 270 271 270 269 271 274 274 270 266 266 268 272 275 280 288 299 304 300 291 286 288 294 300 303 307 312 317 320 320 317 313 311 313 315 315 316 317 316 315 316 317 318 320 321 318 316 317 318 316 315 316 317 317 316 318 320 321 322 323 324 326 327 327 328 329 329 329 330 330 331 332 333 334 332 328 326
234 238 240 240 244 252 261 268 273 275 274 273 272 270 270 271 268 262 259 260 263 270 278 288 294 294 292 287 283 283 288 294 298 303 309 312 314 313 310 307 307 309 309 309 312 314 311 311 312 311 312 315 316 314 313 314 315 313 312 314 315 315 316 318 319 319 321 322 323 324 325 325 325 326 325 325 327 328 329 331 332 334 334 331 326
237 241 243 242 244 248 255 264 272 275 274 273 273 271 267 266 264 260 257 256 259 266 274 282 285 285 285 285 283 284 288 294 300 306 310 312 314 312 308 307 309 310 308 309 311 311 310 310 310 308 310 313 311 308 308 309 309 308 309 311 313 313 313 315 316 317 318 319 320 322 322 321 322 323 323 323 324 326 328 330 331 333 335 334 330
237 242 245 245 247 249 253 262 269 272 273 272 271 269 264 259 259 260 259 258 257 256 253 251 257 267 275 280 284 287 290 294 298 304 308 311 315 315 311 312 313 312 313 315 315 313 311 311 310 309 311 313 309 305 305 306 305 305 306 307 310 311 310 312 313 314 315 315 318 320 319 317 318 320 320 320 321 324 326 328 330 331 332 334 333
234 239 243 245 247 250 256 263 266 266 267 268 267 264 259 255 253 253 252 251 245 233 224 226 238 254 267 279 288 292 294 295 296 301 306 310 313 313 311 311 312 312 313 315 314 312 311 311 310 309 310 310 305 302 304 304 302 302 304 305 307 307 307 308 310 312 312 312 315 317 315 314 315 316 316 318 318 321 323 326 327 329 331 331 332
231 233 237 239 242 248 257 262 260 258 258 259 258 256 254 251 247 241 233 234 237 234 232 237 244 256 270 282 289 293 295 297 299 302 304 305 304 304 304 305 307 309 309 309 309 308 308 308 309 308 308 304 299 298 301 299 298 301 303 305 305 303 303 304 307 310 309 309 311 313 312 312 312 312 315 316 316 317 320 323 324 327 329 330 331
232 231 232 233 236 244 251 253 252 251 251 250 248 246 245 242 238 233 227 227 235 240 244 250 259 270 281 286 288 293 296 299 302 301 299 298 297 296 297 300 302 303 303 304 305 305 304 305 305 306 305 300 297 297 296 294 296 300 302 304 305 304 302 303 306 308 308 308 308 308 310 310 309 310 313 313 312 315 317 319 321 324 327 328 329
234 232 229 226 230 238 243 244 243 242 241 237 235 236 237 235 233 232 233 237 242 247 252 265 275 283 288 290 293 294 295 296 296 294 294 294 293 292 294 296 297 297 298 300 302 302 301 302 302 303 302 298 296 296 294 293 296 299 300 302 303 303 303 303 305 307 306 306 306 305 307 307 305 308 310 308 308 312 313 315 318 321 324 326 327
231 230 227 222 224 231 236 236 232 228 228 227 228 230 231 231 231 233 237 242 248 254 263 274 282 289 292 294 294 293 292 294 293 292 292 291 290 290 292 293 293 293 294 297 298 298 297 299 299 300 299 296 295 294 294 294 296 298 299 299 299 300 301 302 303 303 304 304 302 301 303 304 303 305 305 304 305 308 310 311 315 319 322 324 324
227 229 226 220 218 223 228 230 226 222 221 221 223 227 229 230 231 235 239 244 250 260 271 278 283 288 289 289 289 288 289 290 289 288 287 286 287 289 289 290 290 290 293 295 294 293 293 294 294 295 294 294 294 295 295 295 296 296 295 295 296 298 298 298 298 299 301 300 298 298 300 301 301 301 300 300 303 306 307 309 312 316 319 321 321
223 224 222 218 217 218 222 224 223 221 219 220 224 230 236 240 241 243 246 248 253 261 267 272 276 279 281 282 283 284 286 286 285 284 284 284 286 288 289 290 289 291 295 295 292 290 290 290 289 290 291 292 293 294 294 294 294 293 291 293 295 295 293 293 295 296 296 295 294 295 296 297 297 296 296 298 300 303 305 306 309 313 316 318 319
218 218 217 217 216 216 217 219 220 220 221 223 228 237 248 255 257 257 257 260 265 272 275 277 279 280 282 284 285 288 290 289 288 288 288 288 289 290 291 291 291 294 297 293 288 287 287 286 287 288 288 289 290 290 290 291 291 290 290 292 293 291 290 291 292 292 290 291 293 294 293 293 293 292 292 294 297 300 302 303 305 309 311 313 315
215 215 213 213 215 214 215 217 218 220 225 230 237 249 261 270 275 277 277 280 283 284 283 283 284 285 287 290 292 293 293 292 291 292 291 292 293 293 293 293 296 299 299 293 290 290 287 286 286 286 286 287 287 287 289 289 289 288 289 290 290 289 290 290 290 289 288 289 290 289 288 288 288 287 288 290 293 296 298 299 301 304 306 309 311
Height
5938 5937 5938 5937 5937 5936 5935 5935 5934 5934 5934 5935 5935 5935 5935 5934 5933 5933 5933 5932 5932 5931 5930 5930 5930 5930 5930 5930 5930 5929 5928 5928 5928 5927 5927 5927 5927 5927 5927 5927 5927 5926 5927 5927 5927 5927 5927 5926 5926 5926 5925 5925 5924 5924 5923 5923 5922 5922 5921 5921 5921 5921 5920 5920 5919 5919 5918 5918 5919 5919 5919 5919 5919 5919 5918 5918 5917 5916 5915 5915 5916 5916 5916 5916 5916
5938 5938 5938 5938 5938 5937 5937 5936 5935 5935 5935 5936 5936 5936 5936 5935 5935 5934 5933 5933 5933 5932 5931 5931 5931 5931 5931 5931 5930 5930 5929 5928 5928 5928 5927 5928 5927 5927 5927 5927 5927 5927 5927 5928 5928 5927 5927 5926 5926 5926 5925 5925 5925 5924 5924 5923 5923 5922 5922 5922 5922 5922 5921 5921 5920 5919 5919 5919 5919 5919 5919 5919 5919 5919 5918 5918 5917 5916 5915 5915 5915 5915 5915 5915 5915
5939 5939 5939 5939 5938 5938 5937 5937 5936 5935 5935 5936 5936 5937 5937 5936 5935 5935 5934 5933 5933 5933 5932 5932 5932 5932 5931 5931 5931 5930 5929 5929 5929 5928 5928 5928 5928 5928 5927 5927 5927 5927 5927 5928 5928 5927 5927 5926 5926 5926 5925 5925 5925 5924 5924 5924 5923 5923 5923 5922 5922 5922 5922 5922 5921 5921 5920 5920 5920 5920 5920 5920 5920 5919 5919 5918 5917 5916 5915 5915 5915 5915 5915 5915 5915
5940 5940 5940 5940 5939 5939 5938 5937 5937 5937 5936 5936 5936 5937 5937 5937 5936 5935 5935 5934 5934 5933 5933 5933 5932 5932 5932 5932 5932 5932 5931 5930 5930 5930 5929 5929 5929 5928 5928 5928 5928 5928 5928 5928 5928 5927 5927 5926 5926 5925 5925 5925 5925 5924 5924 5924 5924 5924 5923 5923 5923 5923 5923 5923 5923 5922 5922 5921 5921 5921 5921 5921 5921 5920 5920 5919 5918 5917 5916 5916 5916 5916 5915 5915 5915
5941 5941 5941 5941 5940 5939 5939 5938 5938 5938 5937 5937 5937 5937 5937 5937 5936 5936 5935 5935 5935 5934 5933 5932 5933 5933 5933 5933 5934 5933 5932 5932 5932 5931 5931 5930 5930 5929 5929 5929 5929 5928 5928 5928 5928 5927 5927 5926 5926 5925 5925 5925 5925 5925 5925 5924 5924 5924 5924 5924 5924 5924 5924 5924 5924 5923 5923 5923 5922 5922 5922 5922 5921 5921 5920 5919 5919 5918 5917 5917 5917 5916 5916 5915 5915
5942 5942 5942 5942 5941 5940 5940 5939 5939 5939 5938 5938 5937 5937 5937 5937 5937 5936 5936 5936 5936 5935 5934 5933 5933 5934 5934 5934 5934 5934 5933 5933 5933 5932 5931 5931 5931 5931 5930 5930 5930 5929 5929 5928 5928 5927 5927 5927 5926 5926 5926 5925 5925 5925 5925 5925 5925 5925 5925 5925 5925 5924 5924 5924 5924 5924 5924 5924 5923 5923 5923 5922 5922 5921 5921 5920 5919 5919 5918 5918 5917 5917 5916 5916 5915
5943 5943 5943 5942 5942 5941 5941 5941 5940 5940 5940 5939 5939 5938 5938 5938 5937 5937 5936 5936 5936 5935 5934 5934 5934 5934 5935 5935 5935 5934 5934 5933 5933 5933 5932 5932 5931 5931 5931 5931 5931 5930 5930 5929 5928 5928 5927 5927 5927 5927 5926 5926 5926 5926 5926 5926 5926 5926 5926 5925 5925 5925 5925 5925 5925 5925 5924 5924 5924 5923 5923 5923 5922 5922 5921 5921 5920 5919 5919 5918 5918 5918 5917 5917 5916
5943 5943 5943 5943 5942 5942 5942 5941 5941 5941 5941 5941 5940 5940 5939 5939 5938 5937 5937 5937 5936 5935 5935 5935 5934 5935 5935 5935 5934 5934 5934 5933 5933 5933 5933 5933 5932 5932 5932 5932 5932 5931 5930 5930 5929 5929 5928 5928 5928 5927 5927 5927 5927 5926 5926 5926 5926 5926 5926 5926 5926 5926 5926 5926 5925 5925 5925 5925 5924 5924 5923 5923 5922 5922 5921 5921 5920 5920 5920 5919 5919 5918 5918 5917 5916
5944 5944 5944 5943 5943 5943 5942 5942 5941 5941 5941 5941 5941 5941 5940 5940 5939 5938 5938 5938 5938 5938 5937 5936 5936 5936 5935 5935 5934 5934 5934 5934 5933 5933 5933 5933 5933 5933 5933 5933 5932 5932 5931 5930 5930 5929 5929 5929 5928 5928 5927 5927 5927 5927 5927 5926 5926 5927 5927 5927 5926 5926 5926 5926 5926 5926 5926 5925 5925 5924 5924 5923 5923 5922 5922 5921 5921 5920 5920 5919 5919 5918 5918 5918 5917
5944 5944 5944 5944 5944 5943 5943 5942 5942 5942 5942 5942 5942 5941 5941 5940 5940 5940 5940 5939 5940 5940 5939 5938 5937 5937 5936 5936 5935 5935 5934 5934 5934 5934 5934 5934 5934 5934 5934 5933 5933 5932 5931 5931 5930 5930 5930 5929 5929 5928 5928 5928 5927 5927 5927 5927 5927 5927 5927 5927 5927 5927 5927 5927 5927 5926 5926 5926 5925 5925 5924 5924 5923 5923 5922 5922 5921 5921 5920 5919 5919 5918 5918 5918 5917
5944 5944 5944 5944 5944 5944 5944 5943 5942 5942 5942 5942 5942 5942 5941 5941 5941 5940 5940 5940 5941 5941 5941 5940 5939 5938 5938 5937 5936 5936 5935 5935 5935 5935 5935 5935 5934 5934 5934 5933 5933 5932 5931 5931 5931 5931 5931 5930 5930 5929 5929 5928 5928 5928 5928 5928 5928 5927 5928 5928 5927 5927 5927 5927 5927 5927 5926 5926 5926 5925 5925 5924 5924 5923 5922 5922 5921 5921 5920 5919 5919 5918 5918 5917 5916
5944 5945 5945 5945 5945 5945 5944 5944 5944 5944 5943 5943 5943 5942 5942 5942 5942 5941 5941 5941 5940 5940 5941 5941 5940 5939 5938 5938 5937 5937 5937 5936 5936 5936 5936 5936 5935 5935 5934 5934 5933 5933 5932 5931 5931 5931 5931 5931 5931 5930 5930 5929 5929 5928 5928 5928 5928 5928 5928 5928 5928 5928 5928 5928 5927 5927 5926 5926 5926 5925 5925 5924 5924 5923 5922 5921 5921 5920 5920 5919 5919 5918 5917 5916 5916
5945 5945 5945 5946 5946 5946 5945 5945 5945 5945 5944 5944 5943 5943 5942 5942 5942 5941 5941 5941 5941 5940 5940 5941 5940 5940 5939 5939 5939 5938 5938 5937 5937 5937 5936 5936 5936 5935 5935 5934 5934 5933 5933 5932 5932 5932 5932 5932 5932 5931 5931 5930 5930 5929 5929 5929 5929 5929 5929 5929 5929 5928 5928 5928 5927 5927 5927 5926 5926 5925 5925 5924 5923 5923 5922 5921 5921 5920 5920 5919 5918 5918 5917 5916 5915
5946 5946 5946 5946 5946 5946 5946 5946 5946 5945 5945 5944 5944 5943 5943 5943 5942 5942 5941 5941 5941 5941 5941 5940 5940 5940 5940 5939 5939 5939 5939 5938 5938 5938 5938 5937 5936 5936 5936 5935 5935 5934 5933 5933 5933 5932 5932 5932 5932 5932 5931 5931 5931 5930 5930 5930 5929 5929 5929 5929 5929 5929 5929 5928 5928 5928 5927 5927 5926 5926 5925 5924 5924 5923 5922 5921 5921 5920 5919 5919 5918 5917 5917 5916 5915
5946 5946 5947 5947 5947 5947 5947 5947 5946 5946 5945 5945 5944 5944 5943 5943 5943 5942 5942 5942 5941 5941 5941 5941 5941 5941 5940 5939 5939 5939 5939 5939 5939 5939 5939 5938 5937 5937 5937 5936 5935 5935 5934 5934 5933 5933 5933 5932 5932 5932 5932 5931 5931 5931 5931 5931 5930 5930 5930 5930 5930 5929 5929 5929 5928 5928 5928 5927 5927 5926 5925 5925 5924 5923 5922 5922 5921 5920 5920 5919 5918 5917 5917 5916 5915
5946 5946 5947 5947 5947 5947 5947 5947 5947 5947 5946 5946 5945 5945 5944 5944 5943 5942 5942 5942 5942 5942 5941 5941 5942 5941 5940 5941 5941 5941 5940 5940 5939 5940 5939 5939 5938 5938 5938 5937 5936 5935 5935 5935 5934 5934 5933 5933 5933 5932 5932 5932 5932 5932 5932 5932 5931 5931 5930 5930 5930 5930 5929 5929 5929 5929 5928 5928 5927 5926 5926 5925 5924 5924 5923 5922 5921 5920 5920 5919 5918 5917 5917 5916 5915
5946 5947 5947 5947 5947 5947 5947 5948 5948 5947 5947 5947 5946 5946 5945 5944 5944 5944 5943 5943 5943 5943 5942 5942 5943 5942 5941 5941 5942 5942 5941 5941 5941 5940 5940 5940 5939 5939 5939 5938 5937 5936 5936 5936 5935 5935 5934 5934 5933 5933 5933 5932 5932 5932 5932 5932 5932 5932 5931 5931 5931 5930 5930 5929 5929 5929 5928 5928 5927 5926 5926 5925 5924 5923 5923 5922 5921 5920 5920 5919 5918 5917 5916 5916 5915
5947 5947 5947 5948 5948 5948 5948 5948 5948 5948 5948 5948 5947 5946 5946 5945 5945 5945 5944 5944 5944 5943 5943 5943 5943 5943 5942 5942 5943 5943 5942 5942 5942 5941 5941 5941 5940 5940 5939 5938 5938 5937 5937 5937 5936 5936 5935 5935 5934 5934 5934 5933 5933 5933 5933 5933 5933 5933 5932 5932 5931 5931 5930 5930 5929 5929 5928 5927 5927 5926 5925 5925 5924 5923 5922 5922 5921 5920 5919 5918 5918 5917 5916 5915 5914
5947 5947 5948 5948 5948 5948 5948 5948 5948 5948 5948 5948 5948 5947 5946 5946 5946 5945 5945 5945 5944 5944 5944 5944 5944 5944 5944 5943 5943 5943 5943 5942 5942 5942 5942 5941 5941 5940 5939 5939 5939 5938 5938 5938 5937 5936 5936 5936 5935 5935 5935 5934 5934 5934 5934 5933 5933 5933 5933 5932 5932 5931 5931 5930 5929 5929 5928 5927 5927 5926 5925 5925 5924 5923 5922 5921 5920 5919 5919 5918 5917 5916 5915 5914 5913
5947 5947 5948 5948 5948 5948 5949 5949 5949 5949 5949 5948 5948 5948 5947 5947 5947 5946 5946 5945 5945 5945 5945 5945 5945 5945 5944 5944 5944 5944 5943 5943 5943 5943 5943 5942 5941 5941 5940 5940 5940 5939 5939 5938 5938 5938 5937 5937 5936 5936 5936 5935 5935 5935 5935 5934 5934 5933 5933 5933 5932 5932 5931 5930 5930 5929 5928 5927 5927 5926 5925 5925 5924 5923 5922 5921 5920 5918 5918 5917 5916 5915 5914 5913 5912
5947 5948 5948 5948 5949 5949 5949 5949 5949 5949 5949 5949 5949 5949 5948 5948 5947 5947 5946 5946 5946 5946 5946 5946 5946 5946 5945 5945 5945 5945 5944 5944 5944 5944 5944 5943 5943 5943 5942 5942 5941 5940 5940 5939 5939 5939 5938 5938 5938 5937 5937 5936 5936 5936 5936 5935 5934 5934 5934 5933 5933 5932 5931 5931 5930 5929 5928 5928 5927 5926 5925 5924 5923 5922 5921 5920 5919 5917 5916 5915 5914 5914 5912 5911 5910
5947 5948 5948 5948 5949 5949 5949 5949 5949 5949 5949 5949 5949 5949 5949 5948 5948 5948 5947 5947 5947 5947 5947 5947 5947 5947 5946 5946 5946 5946 5945 5945 5945 5945 5945 5945 5945 5944 5944 5943 5942 5941 5941 5941 5940 5940 5939 5939 5938 5938 5938 5937 5937 5937 5937 5936 5935 5935 5934 5934 5933 5933 5932 5931 5930 5929 5928 5927 5926 5925 5924 5923 5922 5921 5920 5919 5918 5916 5915 5914 5913 5912 5911 5910 5908
5947 5948 5948 5949 5949 5949 5949 5949 5950 5950 5950 5950 5950 5950 5950 5949 5949 5949 5948 5948 5948 5948 5948 5948 5948 5948 5947 5947 5946 5946 5946 5945 5945 5945 5944 5944 5944 5944 5944 5943 5943 5942 5942 5942 5941 5940 5940 5940 5939 5939 5939 5938 5938 5937 5937 5937 5936 5935 5934 5934 5933 5933 5932 5931 5930 5929 5928 5926 5925 5924 5924 5923 5922 5920 5919 5918 5916 5915 5914 5913 5912 5911 5909 5908 5907
5947 5948 5948 5949 5949 5949 5950 5950 5950 5950 5951 5950 5950 5950 5950 5950 5950 5950 5949 5949 5949 5949 5949 5949 5949 5948 5948 5947 5947 5947 5946 5946 5945 5945 5945 5944 5944 5943 5943 5943 5943 5942 5942 5942 5942 5941 5940 5940 5940 5940 5939 5939 5939 5938 5937 5937 5936 5935 5934 5934 5933 5933 5931 5930 5929 5928 5927 5926 5925 5924 5923 5922 5921 5919 5918 5917 5915 5914 5913 5912 5910 5909 5908 5907 5905
5947 5948 5949 5949 5949 5950 5950 5950 5950 5951 5951 5951 5951 5951 5951 5951 5950 5950 5950 5950 5950 5950 5950 5949 5949 5949 5948 5948 5947 5947 5947 5946 5946 5946 5945 5945 5945 5944 5943 5943 5943 5942 5942 5942 5942 5942 5941 5941 5941 5940 5940 5939 5939 5938 5937 5937 5936 5936 5935 5934 5934 5933 5931 5930 5929 5927 5926 5925 5924 5923 5922 5921 5920 5918 5917 5915 5914 5913 5911 5910 5909 5908 5907 5905 5903
5947 5948 5949 5949 5950 5950 5950 5951 5951 5951 5951 5952 5951 5951 5951 5951 5951 5951 5950 5950 5950 5950 5950 5949 5949 5949 5949 5948 5948 5947 5947 5946 5946 5946 5945 5945 5945 5945 5944 5944 5943 5943 5942 5942 5942 5942 5942 5941 5941 5940 5940 5939 5938 5937 5936 5936 5936 5935 5935 5934 5934 5932 5931 5930 5928 5927 5926 5924 5923 5922 5921 5920 5918 5917 5915 5914 5913 5912 5910 5909 5908 5906 5905 5903 5901
5947 5948 5949 5949 5950 5950 5951 5951 5951 5951 5951 5952 5952 5951 5951 5951 5951 5951 5951 5950 5950 5950 5949 5949 5949 5949 5949 5949 5948 5948 5947 5947 5946 5946 5946 5946 5945 5945 5945 5944 5944 5944 5943 5943 5942 5942 5942 5941 5941 5940 5939 5938 5937 5937 5936 5936 5936 5935 5934 5934 5933 5932 5930 5929 5927 5926 5925 5924 5923 5922 5920 5919 5917 5916 5915 5913 5912 5911 5909 5907 5906 5904 5903 5901 5899
5947 5948 5949 5949 5950 5950 5951 5951 5951 5951 5951 5951 5952 5951 5951 5951 5951 5951 5951 5950 5950 5950 5949 5949 5949 5949 5949 5949 5949 5948 5948 5948 5947 5947 5947 5946 5946 5946 5946 5945 5945 5944 5944 5943 5943 5942 5942 5941 5941 5940 5939 5938 5938 5937 5936 5936 5935 5935 5934 5933 5932 5931 5930 5928 5927 5926 5925 5924 5923 5921 5920 5918 5917 5915 5914 5913 5911 5909 5908 5906 5904 5903 5901 5899 5897
5946 5947 5948 5949 5950 5950 5951 5951 5951 5951 5951 5951 5951 5951 5951 5951 5951 5951 5950 5950 5950 5950 5949 5949 5948 5948 5948 5948 5948 5948 5948 5948 5948 5947 5947 5946 5946 5946 5946 5945 5945 5944 5943 5943 5943 5942 5942 5941 5940 5940 5939 5939 5938 5937 5936 5936 5935 5935 5934 5933 5932 5931 5930 5928 5927 5926 5925 5924 5922 5921 5920 5918 5917 5915 5914 5912 5910 5909 5907 5905 5903 5901 5900 5898 5896
5946 5947 5948 5949 5949 5950 5950 5951 5951 5951 5951 5950 5950 5950 5950 5950 5950 5950 5950 5950 5949 5949 5949 5948 5948 5948 5948 5948 5947 5947 5947 5947 5947 5947 5947 5946 5946 5946 5946 5945 5945 5944 5943 5943 5942 5942 5941 5940 5940 5940 5939 5938 5938 5937 5937 5936 5936 5935 5934 5933 5932 5931 5930 5929 5927 5926 5925 5924 5922 5921 5920 5918 5917 5915 5914 5912 5910 5908 5906 5904 5902 5900 5898 5896 5894
5945 5946 5947 5948 5949 5949 5950 5950 5950 5951 5950 5950 5950 5949 5949 5949 5950 5949 5949 5949 5949 5948 5948 5948 5948 5947 5947 5947 5947 5947 5947 5947 5947 5946 5946 5946 5946 5946 5945 5945 5945 5944 5943 5943 5942 5942 5941 5940 5940 5939 5939 5938 5938 5937 5937 5936 5936 5935 5934 5933 5932 5931 5930 5928 5927 5926 5925 5923 5922 5921 5919 5918 5916 5915 5913 5911 5909 5907 5905 5903 5901 5899 5897 5894 5892
5944 5945 5946 5947 5948 5948 5949 5949 5950 5950 5950 5950 5949 5949 5949 5948 5948 5948 5948 5948 5948 5948 5947 5947 5947 5947 5947 5946 5946 5946 5946 5946 5946 5946 5946 5946 5946 5946 5945 5945 5945 5944 5944 5943 5942 5942 5941 5940 5940 5939 5938 5938 5938 5937 5937 5936 5935 5935 5934 5933 5932 5930 5929 5928 5926 5925 5924 5922 5921 5920 5918 5917 5915 5914 5912 5911 5909 5907 5904 5902 5900 5897 5895 5892 5889
5944 5944 5945 5946 5946 5947 5948 5948 5948 5949 5949 5949 5949 5948 5948 5948 5947 5947 5947 5947 5947 5947 5947 5946 5946 5946 5946 5946 5946 5946 5945 5945 5945 5945 5945 5945 5946 5946 5945 5945 5945 5944 5944 5943 5943 5942 5941 5940 5940 5939 5939 5938 5937 5937 5936 5936 5935 5934 5933 5932 5931 5929 5928 5927 5925 5924 5923 5921 5920 5918 5917 5916 5914 5913 5911 5909 5907 5905 5903 5901 5898 5895 5892 5890 5887
5942 5943 5944 5945 5945 5946 5946 5947 5947 5947 5947 5947 5947 5947 5947 5947 5947 5946 5946 5946 5946 5946 5946 5946 5945 5945 5945 5945 5945 5945 5945 5945 5945 5945 5945 5945 5945 5945 5945 5945 5945 5944 5944 5943 5942 5942 5941 5940 5939 5939 5938 5938 5937 5936 5935 5934 5934 5933 5932 5931 5929 5928 5927 5925 5924 5923 5921 5920 5918 5917 5916 5914 5913 5911 5909 5908 5906 5904 5902 5899 5896 5893 5890 5887 5884
5941 5942 5943 5943 5944 5944 5945 5945 5945 5946 5946 5946 5946 5946 5946 5946 5946 5945 5945 5945 5945 5945 5945 5945 5945 5944 5944 5944 5944 5944 5944 5944 5944 5944 5944 5944 5944 5944 5944 5944 5943 5943 5943 5942 5941 5941 5940 5940 5939 5938 5937 5937 5936 5935 5934 5933 5932 5931 5930 5929 5928 5927 5925 5924 5922 5921 5920 5918 5917 5915 5914 5912 5911 5909 5907 5906 5904 5902 5899 5897 5894 5891 5888 5885 5882
5940 5941 5942 5942 5943 5943 5944 5944 5944 5944 5944 5944 5944 5944 5944 5945 5945 5945 5945 5945 5944 5944 5944 5944 5944 5944 5943 5943 5943 5944 5944 5943 5943 5943 5943 5943 5942 5942 5942 5942 5942 5941 5941 5941 5940 5939 5939 5938 5938 5937 5937 5936 5935 5934 5933 5932 5931 5929 5928 5927 5926 5924 5923 5922 5921 5919 5918 5917 5915 5913 5912 5910 5908 5907 5905 5903 5901 5899 5897 5894 5892 5889 5886 5883 5879
5938 5939 5940 5941 5942 5942 5942 5942 5943 5942 5942 5942 5942 5942 5943 5943 5944 5944 5944 5943 5943 5943 5942 5942 5943 5943 5943 5942 5942 5943 5943 5943 5942 5942 5942 5942 5941 5941 5940 5940 5940 5940 5939 5938 5938 5937 5937 5936 5936 5935 5935 5934 5933 5932 5931 5931 5929 5928 5927 5925 5924 5922 5921 5920 5918 5917 5916 5914 5913 5911 5909 5907 5906 5904 5902 5900 5898 5896 5894 5891 5889 5886 5883 5879 5876
5936 5937 5938 5938 5939 5940 5940 5940 5941 5941 5941 5941 5940 5940 5941 5941 5942 5942 5942 5942 5942 5942 5942 5942 5941 5941 5941 5941 5941 5942 5942 5942 5941 5941 5940 5940 5940 5940 5939 5938 5938 5937 5937 5936 5936 5935 5935 5934 5933 5933 5933 5932 5932 5930 5929 5928 5927 5926 5924 5923 5922 5920 5918 5917 5916 5914 5913 5911 5910 5908 5906 5904 5902 5900 5898 5896 5894 5892 5890 5888 5885 5882 5879 5876 5873
5934 5935 5936 5936 5937 5937 5937 5938 5939 5939 5939 5939 5939 5939 5939 5939 5940 5940 5940 5940 5940 5941 5941 5941 5941 5940 5940 5940 5940 5941 5941 5941 5940 5940 5939 5939 5939 5939 5938 5937 5936 5936 5935 5934 5934 5933 5933 5932 5931 5930 5930 5929 5929 5928 5926 5925 5925 5923 5921 5920 5919 5917 5916 5915 5913 5911 5909 5908 5906 5905 5903 5901 5899 5897 5895 5893 5891 5889 5887 5884 5882 5879 5876 5873 5871
5932 5933 5934 5934 5935 5935 5936 5936 5936 5937 5937 5937 5937 5937 5937 5937 5937 5938 5939 5939 5939 5939 5939 5939 5939 5939 5939 5939 5939 5939 5939 5939 5939 5938 5938 5938 5938 5938 5937 5936 5935 5935 5934 5933 5932 5932 5931 5930 5930 5929 5927 5927 5925 5924 5923 5922 5921 5920 5917 5916 5916 5915 5912 5912 5910 5908 5906 5904 5903 5901 5900 5898 5896 5894 5892 5890 5888 5885 5883 5880 5877 5875 5873 5870 5867
5930 5931 5932 5932 5933 5934 5934 5934 5935 5935 5935 5935 5935 5935 5935 5935 5935 5936 5936 5937 5937 5938 5938 5937 5937 5937 5938 5938 5938 5938 5938 5938 5937 5937 5937 5937 5936 5936 5936 5935 5934 5934 5933 5932 5931 5930 5929 5929 5929 5927 5926 5925 5923 5921 5920 5919 5918 5916 5914 5913 5913 5912 5910 5909 5908 5905 5903 5901 5900 5899 5896 5894 5892 5890 5888 5886 5884 5882 5879 5876 5873 5871 5869 5866 5864
5928 5929 5930 5930 5931 5932 5932 5933 5933 5933 5933 5933 5933 5933 5933 5933 5933 5934 5934 5935 5935 5936 5936 5936 5936 5936 5936 5936 5937 5937 5937 5937 5936 5936 5936 5935 5935 5935 5934 5933 5932 5932 5931 5931 5930 5929 5928 5927 5927 5926 5924 5924 5922 5919 5918 5916 5914 5913 5912 5910 5909 5908 5906 5905 5905 5903 5900 5898 5897 5896 5894 5891 5889 5887 5884 5882 5880 5878 5875 5873 5870 5868 5866 5864 5861
5926 5927 5928 5928 5929 5929 5930 5931 5931 5931 5931 5931 5931 5931 5931 5931 5932 5932 5932 5933 5933 5934 5934 5934 5935 5935 5935 5935 5936 5936 5936 5936 5936 5935 5935 5934 5934 5933 5932 5931 5930 5929 5929 5929 5928 5927 5926 5925 5925 5923 5922 5922 5920 5917 5915 5913 5910 5909 5908 5907 5906 5904 5902 5901 5901 5900 5896 5893 5892 5893 5890 5887 5885 5883 5881 5878 5876 5874 5872 5870 5867 5865 5863 5860 5857
5923 5924 5925 5926 5927 5927 5928 5928 5929 5929 5929 5929 5929 5930 5930 5930 5930 5930 5931 5931 5932 5932 5933 5933 5933 5934 5934 5935 5935 5935 5935 5935 5934 5934 5934 5933 5932 5931 5930 5929 5928 5927 5926 5926 5925 5924 5923 5922 5921 5920 5920 5918 5917 5915 5913 5910 5907 5905 5904 5903 5902 5900 5898 5897 5897 5896 5893 5889 5887 5887 5886 5883 5880 5879 5877 5874 5871 5870 5868 5866 5863 5861 5859 5856 5853
5921 5922 5923 5924 5925 5925 5926 5926 5927 5927 5927 5927 5928 5928 5928 5929 5929 5929 5930 5930 5930 5931 5931 5932 5932 5933 5933 5933 5933 5934 5934 5933 5933 5933 5932 5931 5930 5929 5928 5927 5926 5925 5923 5922 5922 5920 5919 5918 5917 5917 5916 5913 5912 5912 5909 5905 5903 5902 5900 5899 5897 5895 5894 5892 5892 5891 5888 5885 5882 5881 5881 5879 5874 5873 5873 5870 5867 5865 5864 5861 5859 5857 5855 5852 5849
5919 5920 5921 5922 5922 5923 5923 5924 5925 5925 5925 5926 5926 5926 5927 5927 5927 5928 5928 5929 5929 5930 5930 5931 5931 5932 5932 5932 5932 5932 5932 5931 5931 5930 5929 5929 5927 5926 5926 5925 5924 5922 5921 5920 5919 5916 5914 5913 5912 5912 5912 5908 5907 5907 5905 5901 5900 5899 5896 5894 5892 5890 5889 5888 5887 5886 5883 5881 5878 5875 5876 5875 5870 5868 5869 5866 5862 5861 5859 5857 5855 5853 5851 5848 5845
5916 5917 5918 5919 5920 5921 5921 5922 5923 5923 5923 5924 5924 5925 5925 5925 5926 5927 5927 5928 5928 5929 5929 5930 5930 5930 5930 5930 5931 5931 5930 5930 5929 5928 5927 5926 5924 5924 5923 5922 5922 5920 5918 5918 5917 5913 5911 5909 5908 5907 5907 5904 5903 5902 5900 5897 5896 5895 5892 5889 5887 5885 5884 5883 5883 5881 5879 5877 5873 5870 5871 5870 5865 5863 5864 5861 5858 5857 5855 5853 5851 5849 5847 5844 5841
5913 5914 5916 5917 5918 5918 5919 5919 5920 5921 5921 5922 5922 5922 5923 5924 5925 5925 5926 5927 5927 5927 5928 5928 5928 5929 5928 5928 5929 5928 5928 5928 5926 5925 5924 5922 5921 5921 5920 5919 5918 5917 5916 5916 5913 5910 5908 5906 5904 5903 5902 5900 5898 5897 5896 5893 5891 5890 5887 5884 5883 5881 5878 5877 5877 5876 5875 5872 5868 5865 5865 5865 5861 5858 5857 5855 5854 5853 5851 5848 5847 5844 5842 5839 5837
5911 5912 5913 5914 5915 5916 5917 5917 5918 5918 5919 5919 5920 5920 5920 5921 5922 5924 5924 5925 5925 5926 5926 5926 5927 5927 5927 5926 5926 5926 5926 5925 5923 5922 5920 5918 5918 5917 5916 5915 5914 5913 5914 5913 5909 5905 5904 5901 5899 5898 5898 5896 5894 5892 5891 5888 5887 5884 5880 5878 5878 5874 5871 5870 5870 5871 5869 5866 5863 5860 5858 5859 5857 5853 5851 5850 5849 5848 5846 5844 5841 5840 5837 5835 5833
5908 5909 5910 5911 5912 5913 5914 5915 5915 5916 5916 5916 5917 5917 5918 5918 5920 5921 5921 5922 5923 5923 5924 5924 5924 5924 5924 5923 5923 5922 5922 5922 5920 5918 5916 5914 5913 5913 5911 5910 5908 5909 5910 5907 5902 5899 5898 5895 5894 5893 5892 5891 5888 5886 5884 5882 5881 5878 5874 5873 5872 5867 5863 5863 5864 5863 5861 5860 5859 5854 5850 5851 5851 5847 5844 5844 5843 5843 5841 5838 5836 5835 5833 5831 5829
5905 5906 5907 5908 5909 5911 5911 5912 5912 5913 5913 5913 5914 5915 5915 5915 5916 5917 5917 5919 5920 5920 5920 5920 5920 5920 5920 5919 5918 5918 5917 5916 5915 5914 5912 5910 5909 5908 5906 5904 5903 5904 5904 5899 5894 5893 5891 5889 5888 5887 5886 5885 5882 5879 5877 5876 5874 5871 5869 5867 5865 5859 5856 5856 5856 5853 5852 5854 5855 5849 5842 5843 5843 5840 5838 5837 5837 5837 5836 5833 5831 5830 5828 5826 5824